Weather in Nikiti

Greece     40°13′23″N   23°40′08″E
temp.,
°C
wind,
m/s
gust,
m/s
humid.,
%
clouds,
%
prec.,
mm/h
press.,
hPa
HPBL,
m
8 march, mon
mon823:00+8ese227174 0.0 1022373
02:00+8se116987 0.0 1021364
05:00+8se117098 0.0 1019366
08:00+8nw017278 0.0 1019174
11:00+10ne117186 0.1 1018338
14:00+11se337379 0.1 1016479
17:00+12sse226989 0.1 1015622
20:00+11ssw237195 0.1 1016526
9 march, tue
tue923:00+11se1272100 0.0 1017363
02:00+10nne2278100 0.0 1017189
05:00+10ne227894 0.0 1016276
08:00+11ne348073 0.0 1017387
11:00+12ene447550 0.0 1017733
14:00+12e567147 0.1 1017873
17:00+12ene566220 0.0 1016700
20:00+11ene576541 0.0 1016481
10 march, wed
wed1023:00+12ene4662100 0.0 1017620
02:00+11ne6672100 0.0 1016476
05:00+10ne567699 0.0 1014413
08:00+10ne337574 0.0 1014443
11:00+10ne337389 0.0 1013450
14:00+12ne437093 0.0 1013416
17:00+10nne3388100 1.9 1012241
20:00+10ne3489100 2.3 1015314
11 march, thu
thu1123:00+10ne3486100 0.4 1018417
02:00+10nne568398 0.8 1020541
05:00+9ene678397 0.2 1021627
08:00+9e898195 0.4 1023710
11:00+9e556698 0.1 1025845
14:00+10e436187 0.1 1024764
17:00+10sse236114 0.0 1023688
20:00+10ssw22648 0.0 1025579
12 march, fri
fri1223:00+9ssw23670 0.0 1025426
02:00+9ssw01700 0.0 1024260
05:00+8ene01731 0.0 1023251
08:00+9ne11721 0.0 1022177
11:00+11e126629 0.0 1021472
14:00+13s346334 0.0 1019747
17:00+13ssw456867 0.0 1018546
20:00+12ssw237280 0.0 1019264